• In Russia
  • List of Countries
  • For 7 days
  • Water Temperature
  • Satellite Maps
  • Weather Map
  • Weather Widgets
  • user-avatar
    Login

    Hourly Weather Heves

    Today, 17 August, Thursday

    Time Temperature Precipitation Wind Pressure Humidity
    00:00 +23°C° 0 mm 1 mps 755 mmHg 49%
    01:00 +23°C° 0 mm 1 mps 755 mmHg 50%
    02:00 +23°C° 0 mm 1 mps 755 mmHg 51%
    03:00 +22°C° 0 mm 1 mps 755 mmHg 53%
    04:00 +22°C° 0 mm 1 mps 755 mmHg 54%
    05:00 +23°C° 0 mm 1 mps 755 mmHg 52%
    06:00 +24°C° 0 mm 2 mps 755 mmHg 49%
    07:00 +25°C° 0 mm 2 mps 755 mmHg 46%
    08:00 +28°C° 0 mm 2 mps 755 mmHg 41%
    09:00 +30°C° 0 mm 2 mps 755 mmHg 36%
    10:00 +32°C° 0 mm 2 mps 755 mmHg 31%
    11:00 +34°C° 0 mm 2 mps 755 mmHg 29%
    12:00 +35°C° 0 mm 2 mps 754 mmHg 27%
    13:00 +36°C° 0 mm 2 mps 754 mmHg 24%
    14:00 +35°C° 0 mm 2 mps 754 mmHg 24%
    15:00 +35°C° 0 mm 2 mps 754 mmHg 24%
    16:00 +35°C° 0 mm 2 mps 753 mmHg 23%
    17:00 +34°C° 0 mm 2 mps 753 mmHg 27%
    18:00 +31°C° 0 mm 1 mps 753 mmHg 30%
    19:00 +29°C° 0 mm 1 mps 754 mmHg 33%
    20:00 +28°C° 0 mm 1 mps 754 mmHg 35%
    21:00 +27°C° 0 mm 1 mps 754 mmHg 37%
    22:00 +26°C° 0 mm 1 mps 754 mmHg 39%
    23:00 +25°C° 0 mm 1 mps 754 mmHg 42%

    Tomorrow, 18 August, Friday

    Time Temperature Precipitation Wind Pressure Humidity
    00:00 +25°C° 0 mm 1 mps 754 mmHg 45%
    01:00 +24°C° 0 mm 1 mps 754 mmHg 48%
    02:00 +23°C° 0 mm 1 mps 754 mmHg 50%
    03:00 +23°C° 0 mm 1 mps 754 mmHg 53%
    04:00 +23°C° 0 mm 1 mps 754 mmHg 55%
    05:00 +24°C° 0 mm 1 mps 754 mmHg 53%
    06:00 +25°C° 0 mm 1 mps 755 mmHg 51%
    07:00 +26°C° 0 mm 1 mps 755 mmHg 49%
    08:00 +28°C° 0 mm 1 mps 755 mmHg 44%
    09:00 +31°C° 0 mm 1 mps 755 mmHg 38%
    10:00 +33°C° 0 mm 1 mps 755 mmHg 33%
    11:00 +34°C° 0 mm 1 mps 754 mmHg 30%
    12:00 +35°C° 0 mm 1 mps 754 mmHg 27%
    13:00 +36°C° 0 mm 1 mps 754 mmHg 23%
    14:00 +36°C° 0 mm 1 mps 753 mmHg 23%
    15:00 +36°C° 0 mm 1 mps 753 mmHg 23%
    16:00 +36°C° 0 mm 1 mps 752 mmHg 22%
    17:00 +34°C° 0 mm 1 mps 752 mmHg 25%
    18:00 +32°C° 0 mm 2 mps 752 mmHg 28%
    19:00 +30°C° 0 mm 2 mps 752 mmHg 31%
    20:00 +29°C° 0 mm 2 mps 752 mmHg 33%
    21:00 +28°C° 0 mm 2 mps 752 mmHg 35%
    22:00 +27°C° 0 mm 2 mps 752 mmHg 37%
    23:00 +26°C° 0 mm 2 mps 752 mmHg 39%

    Day after tomorrow, 19 August, Saturday

    Time Temperature Precipitation Wind Pressure Humidity
    00:00 +26°C° 0 mm 2 mps 752 mmHg 41%
    01:00 +25°C° 0 mm 2 mps 752 mmHg 44%
    02:00 +25°C° 0 mm 1 mps 752 mmHg 46%
    03:00 +24°C° 0 mm 1 mps 752 mmHg 48%
    04:00 +23°C° 0 mm 1 mps 752 mmHg 50%
    05:00 +25°C° 0 mm 1 mps 752 mmHg 48%
    06:00 +26°C° 0 mm 1 mps 752 mmHg 46%
    07:00 +27°C° 0 mm 2 mps 752 mmHg 44%
    08:00 +29°C° 0 mm 2 mps 752 mmHg 39%
    09:00 +31°C° 0 mm 2 mps 752 mmHg 35%
    10:00 +34°C° 0 mm 2 mps 752 mmHg 30%
    11:00 +35°C° 0 mm 2 mps 751 mmHg 28%
    12:00 +36°C° 0 mm 3 mps 751 mmHg 25%
    13:00 +38°C° 0 mm 3 mps 751 mmHg 22%
    14:00 +36°C° 0 mm 3 mps 751 mmHg 25%
    15:00 +35°C° 0 mm 3 mps 750 mmHg 27%
    16:00 +34°C° 0 mm 3 mps 750 mmHg 30%
    17:00 +31°C° 0 mm 3 mps 750 mmHg 37%
    18:00 +29°C° 0 mm 4 mps 751 mmHg 44%
    19:00 +27°C° 0 mm 4 mps 751 mmHg 52%
    20:00 +26°C° 0.2 mm 4 mps 751 mmHg 57%
    21:00 +25°C° 0.2 mm 4 mps 752 mmHg 61%
    22:00 +23°C° 0.2 mm 4 mps 752 mmHg 66%
    23:00 +23°C° 0.4 mm 4 mps 752 mmHg 70%

    20 August, Sunday

    Time Temperature Precipitation Wind Pressure Humidity
    00:00 +22°C° 0.4 mm 4 mps 752 mmHg 73%
    01:00 +21°C° 0.4 mm 4 mps 752 mmHg 77%
    02:00 +21°C° 0.9 mm 4 mps 752 mmHg 80%
    03:00 +20°C° 0.9 mm 3 mps 752 mmHg 83%
    04:00 +20°C° 0.9 mm 3 mps 752 mmHg 86%
    05:00 +20°C° 1.3 mm 3 mps 752 mmHg 86%
    06:00 +19°C° 1.3 mm 3 mps 752 mmHg 87%
    07:00 +19°C° 1.3 mm 2 mps 753 mmHg 87%
    08:00 +19°C° 2.5 mm 3 mps 753 mmHg 87%
    09:00 +19°C° 2.5 mm 3 mps 753 mmHg 87%
    10:00 +19°C° 2.5 mm 3 mps 753 mmHg 88%
    11:00 +19°C° 1.1 mm 3 mps 753 mmHg 86%
    12:00 +19°C° 1.1 mm 4 mps 754 mmHg 84%
    13:00 +17°C° 1.1 mm 5 mps 754 mmHg 83%
    14:00 +19°C° 0.1 mm 5 mps 754 mmHg 78%
    15:00 +19°C° 0.1 mm 4 mps 754 mmHg 73%
    16:00 +20°C° 0.1 mm 4 mps 754 mmHg 69%
    17:00 +19°C° 0 mm 4 mps 754 mmHg 71%
    18:00 +18°C° 0 mm 3 mps 754 mmHg 74%
    19:00 +17°C° 0 mm 2 mps 755 mmHg 77%
    20:00 +17°C° 0 mm 2 mps 755 mmHg 78%
    21:00 +16°C° 0 mm 2 mps 755 mmHg 80%
    22:00 +16°C° 0 mm 1 mps 755 mmHg 82%
    23:00 +16°C° 0 mm 2 mps 755 mmHg 82%

    21 August, Monday

    Time Temperature Precipitation Wind Pressure Humidity
    00:00 +15°C° 0 mm 2 mps 755 mmHg 83%
    01:00 +15°C° 0 mm 2 mps 755 mmHg 84%
    02:00 +15°C° 0 mm 2 mps 755 mmHg 84%
    03:00 +15°C° 0 mm 2 mps 755 mmHg 84%
    04:00 +14°C° 0 mm 2 mps 755 mmHg 84%
    05:00 +15°C° 0 mm 2 mps 755 mmHg 78%
    06:00 +17°C° 0 mm 2 mps 755 mmHg 73%
    07:00 +18°C° 0 mm 2 mps 755 mmHg 67%
    08:00 +20°C° 0 mm 2 mps 755 mmHg 59%
    09:00 +21°C° 0 mm 3 mps 755 mmHg 52%
    10:00 +24°C° 0 mm 3 mps 755 mmHg 44%
    11:00 +25°C° 0 mm 3 mps 755 mmHg 41%
    12:00 +26°C° 0 mm 3 mps 754 mmHg 39%
    13:00 +27°C° 0 mm 3 mps 754 mmHg 36%
    14:00 +26°C° 0 mm 3 mps 754 mmHg 37%
    15:00 +26°C° 0 mm 3 mps 754 mmHg 38%
    16:00 +26°C° 0 mm 3 mps 754 mmHg 38%
    17:00 +25°C° 0 mm 3 mps 754 mmHg 43%
    18:00 +23°C° 0 mm 2 mps 754 mmHg 48%
    19:00 +20°C° 0 mm 2 mps 754 mmHg 53%
    20:00 +20°C° 0 mm 2 mps 755 mmHg 55%
    21:00 +19°C° 0 mm 2 mps 755 mmHg 58%
    22:00 +18°C° 0 mm 2 mps 755 mmHg 61%
    23:00 +19°C° 0 mm 1 mps 755 mmHg 63%

    22 August, Tuesday

    Time Temperature Precipitation Wind Pressure Humidity
    00:00 +18°C° 0 mm 1 mps 755 mmHg 65%
    01:00 +18°C° 0 mm 1 mps 755 mmHg 66%
    02:00 +16°C° 0 mm 1 mps 755 mmHg 68%
    03:00 +16°C° 0 mm 1 mps 755 mmHg 70%
    04:00 +15°C° 0 mm 1 mps 755 mmHg 72%
    05:00 +18°C° 0 mm 1 mps 755 mmHg 68%
    06:00 +19°C° 0 mm 1 mps 755 mmHg 64%
    07:00 +18°C° 0 mm 0 mps 755 mmHg 60%
    08:00 +22°C° 0 mm 1 mps 755 mmHg 54%
    09:00 +23°C° 0 mm 1 mps 755 mmHg 48%
    10:00 +25°C° 0 mm 2 mps 755 mmHg 42%
    11:00 +26°C° 0 mm 2 mps 754 mmHg 39%
    12:00 +27°C° 0 mm 2 mps 754 mmHg 35%
    13:00 +28°C° 0 mm 3 mps 753 mmHg 31%
    14:00 +28°C° 0 mm 2 mps 753 mmHg 31%
    15:00 +28°C° 0 mm 2 mps 752 mmHg 31%
    16:00 +29°C° 0 mm 2 mps 752 mmHg 31%
    17:00 +27°C° 0 mm 2 mps 752 mmHg 35%
    18:00 +25°C° 0 mm 1 mps 752 mmHg 39%
    19:00 +24°C° 0 mm 1 mps 751 mmHg 44%
    20:00 +23°C° 0 mm 1 mps 751 mmHg 45%
    21:00 +21°C° 0 mm 2 mps 751 mmHg 46%
    22:00 +21°C° 0 mm 2 mps 752 mmHg 46%
    23:00 +20°C° 0 mm 2 mps 751 mmHg 48%
    Show more